User: anonymous
Location: Roanoke
(37.2710°N, 79.9420°W)
Time: 16:08:10
(UTC-04:00)
Language:

Cosmos 1441 Rocket - Orbit

View from above orbital plane
View from above orbital plane
View from above satellite
View from above satellite

Ground track
Ground track

The orbit data is extracted from the following two-line orbital elements,

1 13819U 83010B   14203.79480891  .00001426  00000-0  83384-4 0  9005
2 13819 081.1182 314.6680 0033701 263.4044 096.3345 15.10784607713325
Epoch (UTC): 22 July 2014 19:04:31
Eccentricity: 0.0033701
inclination: 81.1182°
perigee height: 510 km
apogee height: 557 km
right ascension of ascending node: 314.6680°
argument of perigee: 263.4044°
revolutions per day: 15.10784607
mean anomaly at epoch: 96.3345°
orbit number at epoch: 71332

The dashed part of the orbit path shows where the satellite is in the earth's shadow,  

DLR